STARLINK-32382, 61258

Orbit data source: Space-Track

STARLINK-32382, 61258 is a payload satellite owned by SpaceX/Seattle (US) in LEO that was launched on Wed, 25 Sep 2024 UTC via an FALCON 9 launch vehicle from the Air Force Western Test Range (AFWTR). Payload-class satellites include a variety of spacecraft equipped with specific instruments for various scientific and technological missions. These include communications satellites like Starlink; space stations such as the ISS; scientific satellites like the Hubble; Earth observation satellites from companies like Planet Labs, Umbra, and HawkEye 360; GPS; miniature CubeSats for education and research; and military/defense satellites.

Loading next visibility...
Identifier
61258, 2024-175R
Orbit
LEO
Last TLE update
14 hours ago
Origin
Manufacturer
SpaceX/Seattle
Mission
Operational Commercial Communications
Bus & Motor
STARLINK V2M, Unknown motor
Mass
730 kg wet, ~700 kg dry
Launch date (UTC)
2024-09-25 (9 months ago)
Launch vehicle
FALCON 9
Launch site
Air Force Western Test Range (AFWTR)
Object type
Payload
Rocket body
Debris
Shape & HBR
Box + 2 Pan, 29 m
Radar Cross Section
33.884 m², Large (>1 m²)

Expand to show TLE details & history

TLE from 14 hours ago
0 STARLINK-32382
1 61258U 24175R   25187.45972124 -.00000041  00000-0  10761-4 0  9993
2 61258  53.1603 257.8271 0001388  89.7834 270.3325 15.30190848 43753
Epoch: 2025-07-06T11:01Z
TLE epoch observation values (Epoch: 2025-07-06T11:01:59.915Z)
Latitude
-0.00007°
Longitude
167.6443°
Altitude
476.137 km
Speed
7.629 km/s
True Right ascension
17h 11m 18s
True Declination
0° 00' 00"
Sunlit
Object was in full shadow at epoch
Visualization orbit readout
Latitude
-48.08471°
Longitude
41.09816°
Altitude
492.598 km
Speed
7.618 km/s
Apparent Right ascension
04h 29m 29s
Apparent Declination
-63° 02' 57"
Sunlit
Object is in daylight
Visualization observer readout
Local Sidereal Time
12:39:40
Azimuth
215.928° SW
Elevation
-49.376°
Doppler factor
1
Orbital elements
Apogee altitude
476.45 km
Perigee altitude
474.547 km
Semi-major axis
6,853.636 km
Eccentricity
0.00014
Inclination
53.1603°
RAAN
257.8271°
Arg. of periapsis
89.7834°
True anomaly
Unknown
Mean anomaly
270.3325°
Eccentric anomaly
Unknown
Mean motion
3.82527 °/min
Orbital period
94.11 mins
BSTAR
0.000010761
Loading maneuver chart data...
Loading SW <> Apogee altitude chart data...
Loading historical data...
Loading historical data...
Loading historical data...
Loading historical data...
Loading historical data...
Loading historical data...
Loading historical data...

STARLINK-32382 Visibility forecast

Observer location: undefined°, undefined°

Span
Click to sort rows by Start time (UTC) header in descending order
Start Az.
Max El. time (UTC)
Max El. Az.
Max El.
End time (UTC)
End Az.
5 mins2025-07-07 07:37:11.092Z241.493° WSW2025-07-07 07:39:11.092Z353.273° N43.177°2025-07-07 07:42:11.092Z45.916° ENE
5 mins2025-07-07 12:33:11.092Z337.375° NNW2025-07-07 12:36:11.092Z32.829° NE17.34°2025-07-07 12:38:11.092Z66.826° ENE
5 mins2025-07-07 14:12:11.092Z309.113° NW2025-07-07 14:14:11.092Z147.525° SSE44.723°2025-07-07 14:17:11.092Z132.019° SE
|